Location: Kam�li
(14.6864°N, 3.1482°W)
Time: 01:08:07
(UTC+00:00)

Cosmos 883 Rocket - Pass Details

Date: 29 October 2020
Orbit: 951 x 995 km, 83.0° (Epoch: 02 December)

Event Time Altitude Azimuth Distance (km) Brightness Sun altitude
Rises 18:41:34 0° 179° (S) 3,662 7.6 -14.2°
Reaches altitude 10° 18:44:06 10° 177° (S) 2,709 6.9 -14.8°
Maximum altitude 18:50:17 75° 93° (E) 996 4.4 -16.2°
Drops below altitude 10° 18:56:23 10° 8° (N) 2,683 6.6 -17.7°
Sets 18:58:52 0° 7° (N) 3,625 7.3 -18.3°
